KC5TIL-3 Weather Reports


Display with metric or nautical units.
time (UTC)temp
F
wind
direction
speed
MPH
gust
MPH
rain 1hr
in
rain 24hr
in
rain mn
in
humidity
%
barometer
mb
20260504014422 73 223 5.0 9.0 0.00 0.00 0.00 16 1012.8
20260504013912 73 213 6.0 10.0 0.00 0.00 0.00 16 1012.8
20260504013415 73 236 8.0 10.0 0.00 0.00 0.00 16 1012.8
20260504012916 74 210 6.0 10.0 0.00 0.00 0.00 16 1012.8
20260504011917 74 138 5.0 12.0 0.00 0.00 0.00 16 1012.8
20260504005920 75 217 5.0 12.0 0.00 0.00 0.00 15 1012.8
20260504004418 76 226 7.0 11.0 0.00 0.00 0.00 15 1012.8
20260504002920 77 146 7.0 10.0 0.00 0.00 0.00 15 1012.8
20260504001921 78 161 5.0 10.0 0.00 0.00 0.00 15 1012.8
20260504001423 78 200 6.0 12.0 0.00 0.00 0.00 13 1012.8
20260503235911 78 162 10.0 13.0 0.00 0.00 0.00 12 1012.8
20260503235409 79 134 8.0 12.0 0.00 0.00 0.00 15 1012.8
20260503234409 79 200 7.0 13.0 0.00 0.00 0.00 15 1012.8
20260503233907 79 121 9.0 14.0 0.00 0.00 0.00 15 1012.8
20260503232409 79 221 7.0 11.0 0.00 0.00 0.00 15 1012.8
20260503231413 79 202 8.0 12.0 0.00 0.00 0.00 15 1012.8
20260503230907 80 233 6.0 13.0 0.00 0.00 0.00 14 1012.8
20260503225911 80 148 7.0 14.0 0.00 0.00 0.00 14 1013.8
20260503225405 80 182 10.0 14.0 0.00 0.00 0.00 14 1013.8
20260503223908 80 149 8.0 14.0 0.00 0.00 0.00 14 1013.8
20260503223410 80 225 9.0 12.0 0.00 0.00 0.00 12 1013.8
20260503222906 80 200 6.0 14.0 0.00 0.00 0.00 12 1013.8
20260503222405 79 215 13.0 16.0 0.00 0.00 0.00 12 1013.8
20260503220902 79 218 8.0 11.0 0.00 0.00 0.00 14 1013.8
20260503215906 80 156 7.0 15.0 0.00 0.00 0.00 14 1013.8
20260503215405 80 201 8.0 14.0 0.00 0.00 0.00 14 1013.8
20260503214409 80 180 8.0 12.0 0.00 0.00 0.00 14 1014.8
20260503213903 79 129 9.0 14.0 0.00 0.00 0.00 14 1014.8
20260503213401 80 198 10.0 16.0 0.00 0.00 0.00 14 1014.8
20260503212902 79 188 7.0 16.0 0.00 0.00 0.00 12 1014.8
20260503211359 81 176 5.0 10.0 0.00 0.00 0.00 14 1014.8
20260503210359 81 216 8.0 16.0 0.00 0.00 0.00 14 1014.8
20260503205901 79 222 12.0 13.0 0.00 0.00 0.00 15 1014.8
20260503204901 79 211 12.0 14.0 0.00 0.00 0.00 15 1014.8
20260503204403 79 188 8.0 14.0 0.00 0.00 0.00 15 1014.8
20260503203358 81 202 8.0 12.0 0.00 0.00 0.00 14 1015.8
20260503202900 80 204 7.0 14.0 0.00 0.00 0.00 14 1015.8
20260503201856 81 158 5.0 13.0 0.00 0.00 0.00 14 1015.8
20260503201352 80 104 9.0 14.0 0.00 0.00 0.00 14 1015.8
20260503200352 80 201 8.0 12.0 0.00 0.00 0.00 14 1015.8
20260503194854 79 217 7.0 18.0 0.00 0.00 0.00 15 1015.8
20260503194356 79 169 11.0 15.0 0.00 0.00 0.00 14 1015.8
20260503193356 79 212 5.0 12.0 0.00 0.00 0.00 15 1016.8
20260503192858 80 131 7.0 15.0 0.00 0.00 0.00 14 1016.8
20260503192357 80 248 4.0 9.0 0.00 0.00 0.00 14 1016.8
20260503191858 80 198 6.0 12.0 0.00 0.00 0.00 14 1016.8
20260503191355 78 209 10.0 19.0 0.00 0.00 0.00 15 1016.8
20260503190849 79 204 9.0 14.0 0.00 0.00 0.00 15 1016.8
20260503185853 79 181 8.0 13.0 0.00 0.00 0.00 14 1016.8
20260503185341 81 182 5.0 10.0 0.00 0.00 0.00 14 1016.8
20260503184838 79 146 5.0 8.0 0.00 0.00 0.00 15 1016.8
20260503184340 80 93 6.0 10.0 0.00 0.00 0.00 14 1016.8
20260503183839 79 169 5.0 15.0 0.00 0.00 0.00 14 1016.8
20260503183340 78 239 7.0 14.0 0.00 0.00 0.00 15 1016.8
20260503182843 78 171 5.0 14.0 0.00 0.00 0.00 15 1016.8
20260503182341 78 176 8.0 14.0 0.00 0.00 0.00 15 1016.8
20260503181838 78 134 7.0 18.0 0.00 0.00 0.00 15 1017.8
20260503180838 77 221 9.0 15.0 0.00 0.00 0.00 15 1017.8
20260503180340 78 210 5.0 13.0 0.00 0.00 0.00 15 1017.8
20260503175837 77 241 9.0 8.0 0.00 0.00 0.00 15 1017.8
20260503174823 78 144 5.0 13.0 0.00 0.00 0.00 18 1017.8
20260503174325 76 207 7.0 11.0 0.00 0.00 0.00 18 1017.8
20260503173326 76 220 6.0 15.0 0.00 0.00 0.00 18 1017.8
20260503172828 76 166 7.0 11.0 0.00 0.00 0.00 18 1017.8
20260503172326 77 222 7.0 12.0 0.00 0.00 0.00 18 1017.8
20260503171828 76 163 7.0 10.0 0.00 0.00 0.00 18 1018.8
20260503171330 76 198 7.0 15.0 0.00 0.00 0.00 18 1018.8
20260503170828 75 230 7.0 16.0 0.00 0.00 0.00 20 1018.8
20260503170330 74 189 10.0 16.0 0.00 0.00 0.00 21 1018.8
20260503150838 69 156 6.0 9.0 0.00 0.00 0.00 23 1019.8
20260503150340 70 104 4.0 9.0 0.00 0.00 0.00 23 1018.8
20260503131343 60 219 7.0 12.0 0.00 0.00 0.00 36 1018.8
20260503130842 60 234 7.0 11.0 0.00 0.00 0.00 36 1018.8
20260503130344 59 219 9.0 12.0 0.00 0.00 0.00 36 1018.8
20260503110334 59 214 6.0 11.0 0.00 0.00 0.00 36 1017.8
20260503081334 60 232 7.0 10.0 0.00 0.00 0.00 32 1017.8
20260503080833 60 224 7.0 10.0 0.00 0.00 0.00 32 1017.8
20260503080335 60 189 7.0 11.0 0.00 0.00 0.00 32 1017.8
20260503072832 61 201 7.0 10.0 0.00 0.00 0.00 30 1017.8
20260503072326 61 198 5.0 10.0 0.00 0.00 0.00 30 1017.8
20260503071827 61 194 7.0 12.0 0.00 0.00 0.00 30 1017.8
20260503071329 61 222 7.0 12.0 0.00 0.00 0.00 31 1017.8
20260503070828 60 216 9.0 12.0 0.00 0.00 0.00 32 1017.8
20260503070320 61 198 7.0 11.0 0.00 0.00 0.00 32 1017.8
20260503054826 64 224 8.0 10.0 0.00 0.00 0.00 24 1017.8
20260503054328 65 186 6.0 9.0 0.00 0.00 0.00 24 1017.8
20260503053827 65 197 5.0 10.0 0.00 0.00 0.00 24 1017.8
20260503053324 65 216 7.0 10.0 0.00 0.00 0.00 23 1017.8
20260503052826 66 205 7.0 10.0 0.00 0.00 0.00 23 1017.8
20260503052324 66 189 5.0 10.0 0.00 0.00 0.00 23 1017.8
20260503051826 66 199 7.0 9.0 0.00 0.00 0.00 23 1017.8
20260503051328 66 168 7.0 10.0 0.00 0.00 0.00 22 1017.8
20260503050822 67 207 6.0 10.0 0.00 0.00 0.00 22 1017.8
20260503050324 67 221 7.0 8.0 0.00 0.00 0.00 20 1017.8
20260503045825 67 194 6.0 9.0 0.00 0.00 0.00 20 1017.8
20260503045324 67 216 6.0 7.0 0.00 0.00 0.00 20 1017.8
20260503044826 67 215 4.0 7.0 0.00 0.00 0.00 20 1017.8
20260503044328 67 207 4.0 7.0 0.00 0.00 0.00 20 1017.8
20260503043827 67 189 6.0 6.0 0.00 0.00 0.00 20 1017.8
20260503043328 67 224 4.0 7.0 0.00 0.00 0.00 20 1017.8
20260503042830 67 203 5.0 7.0 0.00 0.00 0.00 20 1017.8
20260503042329 67 211 5.0 7.0 0.00 0.00 0.00 20 1017.8
20260503041831 67 218 4.0 6.0 0.00 0.00 0.00 20 1017.8
20260503041332 67 214 3.0 8.0 0.00 0.00 0.00 20 1017.8
20260503040831 67 218 3.0 7.0 0.00 0.00 0.00 20 1017.8
20260503040333 68 189 5.0 7.0 0.00 0.00 0.00 20 1017.8
20260503035835 68 229 5.0 8.0 0.00 0.00 0.00 20 1017.8
20260503035333 68 208 5.0 7.0 0.00 0.00 0.00 20 1017.8
20260503034835 68 214 4.0 7.0 0.00 0.00 0.00 20 1017.8
20260503033826 68 219 3.0 6.0 0.00 0.00 0.00 20 1017.8
20260503033328 68 207 4.0 5.0 0.00 0.00 0.00 20 1017.8
20260503032831 68 202 4.0 6.0 0.00 0.00 0.00 20 1017.8
20260503032329 68 212 3.0 6.0 0.00 0.00 0.00 20 1017.8
20260503031830 68 213 4.0 5.0 0.00 0.00 0.00 20 1016.8
20260503031333 68 201 3.0 5.0 0.00 0.00 0.00 20 1016.8
20260503030832 68 196 3.0 6.0 0.00 0.00 0.00 20 1016.8
20260503030333 69 216 4.0 6.0 0.00 0.00 0.00 20 1016.8
20260503025830 69 208 4.0 5.0 0.00 0.00 0.00 17 1016.8
20260503025328 69 196 0.0 6.0 0.00 0.00 0.00 17 1016.8
20260503024830 69 216 4.0 5.0 0.00 0.00 0.00 17 1016.8
20260503023830 70 215 4.0 6.0 0.00 0.00 0.00 17 1016.8
20260503023328 70 211 4.0 6.0 0.00 0.00 0.00 17 1016.8
20260503022830 70 207 3.0 5.0 0.00 0.00 0.00 17 1016.8
20260503022328 70 211 3.0 6.0 0.00 0.00 0.00 17 1016.8
20260503020826 71 208 4.0 6.0 0.00 0.00 0.00 16 1016.8
20260503015830 71 214 4.0 4.0 0.00 0.00 0.00 16 1016.8
20260503015324 71 213 3.0 5.0 0.00 0.00 0.00 16 1016.8
20260503014826 72 215 3.0 5.0 0.00 0.00 0.00 16 1016.8